Tampa, FL

7:52 AM EDT on June 25, 2017 (GMT -0400)
Tampa International

Weather History for KTPA - October, 2010

Change the Weather History Date:

Saturday, October 2, 2010

  Actual Average Record
Temperature  
Mean Temperature 79 °F 79 °F  
Max Temperature 88 °F 87 °F 93 °F (1958)
Min Temperature 69 °F 72 °F 55 °F (1920)
Degree Days  
Heating Degree Days 0 0  
Month to date heating degree days 0 0  
Since 1 July heating degree days 0 0  
Cooling Degree Days 14 14  
Month to date cooling degree days 30 29  
Year to date cooling degree days 3189 3045  
Growing Degree Days 28 (Base 50)    
Moisture  
Dew Point 62 °F    
Average Humidity 60    
Maximum Humidity 84    
Minimum Humidity 36    
Precipitation  
Precipitation 0.00 in 0.12 in 1.52 in (1972)
Month to date precipitation T 0.24  
Year to date precipitation 37.73 40.26  
Sea Level Pressure  
Sea Level Pressure 29.82 in    
Wind  
Wind Speed 5 mph (North)    
Max Wind Speed 15 mph    
Max Gust Speed 25 mph    
Visibility 9 miles    
Events      
T = Trace of Precipitation, MM = Missing Value Source: NWS Daily Summary

Daily Weather History Graph

Daily Weather History Graph

Search for Another Location

Airport or City:

Trip Planner

Search our weather history database for the weather conditions in past years. The results will help you decide how hot, cold, wet, or windy it might be!

Date:

Astronomy

Oct. 02, 2010 Rise Set
Actual Time 7:23 AM EDT 7:14 PM EDT
Civil Twilight 7:00 AM EDT 7:38 PM EDT
Nautical Twilight 6:32 AM EDT 8:05 PM EDT
Astronomical Twilight 6:05 AM EDT 8:32 PM EDT
Moon 1:38 AM EDT (10/2) 3:33 PM EDT (10/2)
Length of Visible Light 12h 38m
Length of Day
11h 51m
Waning Crescent, 33% of the Moon is Illuminated
Oct 2
Waning Crescent
Oct 7
New
Oct 14
First Quarter
Oct 22
Full
Oct 30
Last Quarter

Hourly Weather History & Observations

Time (EDT) Temp. Heat Index Dew Point Humidity Pressure Visibility Wind Dir Wind Speed Gust Speed Precip Events Conditions
12:53 AM 73.0 °F - 62.1 °F 68% 29.81 in 10.0 mi ENE 3.5 mph - N/A   Clear
1:53 AM 72.0 °F - 60.1 °F 66% 29.80 in 10.0 mi ENE 3.5 mph - N/A   Partly Cloudy
2:53 AM 71.1 °F - 62.1 °F 73% 29.79 in 10.0 mi Calm Calm - N/A   Partly Cloudy
3:53 AM 71.1 °F - 63.0 °F 75% 29.78 in 10.0 mi Calm Calm - N/A   Clear
4:53 AM 69.1 °F - 64.0 °F 84% 29.79 in 9.0 mi NNE 3.5 mph - N/A   Partly Cloudy
5:53 AM 70.0 °F - 64.9 °F 84% 29.80 in 10.0 mi NNE 3.5 mph - N/A   Partly Cloudy
6:53 AM 70.0 °F - 64.9 °F 84% 29.82 in 10.0 mi NE 4.6 mph - N/A   Clear
7:53 AM 70.0 °F - 64.9 °F 84% 29.83 in 8.0 mi NNE 4.6 mph - N/A   Partly Cloudy
8:53 AM 73.0 °F - 64.9 °F 76% 29.84 in 8.0 mi NNE 4.6 mph - N/A   Partly Cloudy
9:53 AM 77.0 °F - 64.0 °F 64% 29.86 in 8.0 mi NE 4.6 mph - N/A   Partly Cloudy
10:53 AM 81.0 °F 82.7 °F 64.9 °F 58% 29.86 in 10.0 mi NNE 4.6 mph - N/A   Scattered Clouds
11:53 AM 84.0 °F 84.9 °F 63.0 °F 49% 29.86 in 10.0 mi Variable 3.5 mph - N/A   Partly Cloudy
12:15 PM 84.2 °F 85.0 °F 62.6 °F 48% 29.85 in 2.0 mi NNE 4.6 mph - N/A   Haze
12:25 PM 82.4 °F 82.9 °F 60.8 °F 48% 29.85 in 10.0 mi Variable 4.6 mph - N/A   Partly Cloudy
12:53 PM 84.9 °F 84.8 °F 60.1 °F 43% 29.84 in 10.0 mi Variable 5.8 mph - N/A   Scattered Clouds
1:53 PM 84.9 °F 85.9 °F 63.0 °F 48% 29.82 in 10.0 mi WSW 6.9 mph - N/A   Scattered Clouds
2:53 PM 84.9 °F 85.4 °F 62.1 °F 46% 29.79 in 10.0 mi West 9.2 mph - N/A   Scattered Clouds
3:53 PM 88.0 °F 86.9 °F 57.9 °F 36% 29.78 in 10.0 mi Calm Calm - N/A   Scattered Clouds
4:53 PM 84.9 °F 85.0 °F 61.0 °F 44% 29.77 in 10.0 mi WNW 11.5 mph 20.7 mph N/A   Scattered Clouds
5:53 PM 84.0 °F 84.0 °F 60.1 °F 44% 29.78 in 10.0 mi NNW 8.1 mph - N/A   Partly Cloudy
6:53 PM 81.0 °F 81.3 °F 59.0 °F 47% 29.79 in 10.0 mi NW 11.5 mph - N/A   Clear
7:53 PM 77.0 °F - 57.9 °F 52% 29.81 in 10.0 mi NNW 5.8 mph - N/A   Partly Cloudy
8:53 PM 75.0 °F - 60.1 °F 60% 29.82 in 10.0 mi NNW 5.8 mph - N/A   Clear
9:53 PM 73.9 °F - 62.1 °F 66% 29.84 in 10.0 mi North 4.6 mph - N/A   Clear
10:53 PM 73.9 °F - 63.0 °F 68% 29.85 in 10.0 mi North 3.5 mph - N/A   Partly Cloudy
11:53 PM 73.9 °F - 64.0 °F 71% 29.86 in 10.0 mi NE 4.6 mph - N/A   Clear